User: anonymous   Login
Location: Caltech
(34.1382°N, 118.1253°W)
Time: 03:26:31
(UTC-08:00)
Language:

DELTA 2 R/B (1) - Orbit

View from above orbital plane
View from above orbital plane
View from above satellite
View from above satellite

Ground track
Ground track

The orbit data is extracted from the following two-line orbital elements,

1 27665U 03005C   14350.77223127  .00000397  00000-0  19124-3 0  1865
2 27665 039.5765 080.7454 0007932 093.1367 056.1204 14.28267345620290
Epoch (UTC): 16 December 2014 18:32:00
Eccentricity: 0.0007932
inclination: 39.5765°
perigee height: 792 km
apogee height: 803 km
right ascension of ascending node: 80.7454°
argument of perigee: 93.1367°
revolutions per day: 14.28267345
mean anomaly at epoch: 56.1204°
orbit number at epoch: 62029

The dashed part of the orbit path shows where the satellite is in the earth's shadow,  

DLR